Time,TemperatureF,DewpointF,PressureIn,WindDirection,WindDirectionDegrees,WindSpeedMPH,WindSpeedGustMPH,Humidity,HourlyPrecipIn,Conditions,Clouds,dailyrainin,SolarRadiationWatts/m^2,SoftwareType,DateUTC
2013-01-03 00:43:00,39.0,18.0,-100.00,East,81,5.0,8.0,43,0.00,,,0.00,0.000000,,2013-01-03 08:43:00,
2013-01-03 00:53:00,39.0,18.0,-100.00,East,81,5.0,8.0,43,0.00,,,0.00,0.000000,,2013-01-03 08:53:00,
2013-01-03 01:34:00,39.0,16.0,-100.00,East,101,0.0,6.0,38,-99.99,,,-99.99,0.000000,,2013-01-03 09:34:00,
2013-01-03 01:43:00,39.0,16.0,-100.00,East,101,0.0,6.0,38,-99.99,,,-99.99,0.000000,,2013-01-03 09:43:00,
2013-01-03 01:53:00,39.0,16.0,-100.00,East,101,0.0,6.0,38,-99.99,,,-99.99,0.000000,,2013-01-03 09:53:00,
2013-01-03 02:02:00,39.0,16.0,-100.00,East,101,0.0,6.0,38,-99.99,,,-99.99,0.000000,,2013-01-03 10:02:00,
2013-01-03 02:11:00,39.0,16.0,-100.00,East,101,0.0,6.0,38,-99.99,,,-99.99,0.000000,,2013-01-03 10:11:00,
2013-01-03 02:33:00,41.0,15.0,-100.00,NNW,346,0.0,5.0,35,0.00,,,0.00,0.000000,,2013-01-03 10:33:00,
2013-01-03 02:43:00,41.0,15.0,-100.00,NNW,346,0.0,5.0,35,0.00,,,0.00,0.000000,,2013-01-03 10:43:00,
2013-01-03 02:52:00,41.0,15.0,-100.00,NNW,346,0.0,5.0,35,0.00,,,0.00,0.000000,,2013-01-03 10:52:00,
2013-01-03 03:02:00,41.0,15.0,-100.00,NNW,346,0.0,5.0,35,0.00,,,0.00,0.000000,,2013-01-03 11:02:00,
2013-01-03 03:11:00,41.0,15.0,-100.00,NNW,346,0.0,5.0,35,0.00,,,0.00,0.000000,,2013-01-03 11:11:00,
2013-01-03 03:33:00,43.0,19.0,-100.00,East,82,1.0,8.0,37,0.00,,,0.00,0.000000,,2013-01-03 11:33:00,
2013-01-03 03:43:00,43.0,19.0,-100.00,East,82,1.0,8.0,37,0.00,,,0.00,0.000000,,2013-01-03 11:43:00,
2013-01-03 03:53:00,43.0,19.0,-100.00,East,82,1.0,8.0,37,0.00,,,0.00,0.000000,,2013-01-03 11:53:00,
2013-01-03 04:02:00,43.0,19.0,-100.00,East,82,1.0,8.0,37,0.00,,,0.00,0.000000,,2013-01-03 12:02:00,
2013-01-03 04:12:00,43.0,19.0,-100.00,East,82,1.0,8.0,37,0.00,,,0.00,0.000000,,2013-01-03 12:12:00,
2013-01-03 04:43:00,40.0,15.0,-100.00,East,79,0.0,5.0,35,0.00,,,0.00,0.000000,,2013-01-03 12:43:00,
2013-01-03 04:53:00,40.0,15.0,-100.00,East,79,0.0,5.0,35,0.00,,,0.00,0.000000,,2013-01-03 12:53:00,
2013-01-03 05:02:00,40.0,15.0,-100.00,East,79,0.0,5.0,35,0.00,,,0.00,0.000000,,2013-01-03 13:02:00,
2013-01-03 05:12:00,40.0,15.0,-100.00,East,79,0.0,5.0,35,0.00,,,0.00,0.000000,,2013-01-03 13:12:00,
2013-01-03 05:42:00,38.0,20.0,-100.00,East,85,1.0,6.0,47,0.00,,,-99.99,0.000000,,2013-01-03 13:42:00,
2013-01-03 05:53:00,38.0,20.0,-100.00,East,85,1.0,6.0,47,0.00,,,-99.99,0.000000,,2013-01-03 13:53:00,
2013-01-03 06:33:00,40.0,14.0,-100.00,NNW,331,1.0,9.0,34,-99.99,,,0.00,0.000000,,2013-01-03 14:33:00,
2013-01-03 06:43:00,40.0,14.0,-100.00,NNW,331,1.0,9.0,34,-99.99,,,0.00,0.000000,,2013-01-03 14:43:00,
2013-01-03 06:53:00,40.0,14.0,-100.00,NNW,331,1.0,9.0,34,-99.99,,,0.00,0.000000,,2013-01-03 14:53:00,
2013-01-03 07:02:00,40.0,14.0,-100.00,NNW,331,1.0,9.0,34,-99.99,,,0.00,0.000000,,2013-01-03 15:02:00,
2013-01-03 07:12:00,40.0,14.0,-100.00,NNW,331,1.0,9.0,34,-99.99,,,0.00,0.000000,,2013-01-03 15:12:00,
2013-01-03 07:43:00,37.0,16.0,-100.00,ENE,73,1.0,6.0,42,0.00,,,0.00,2.000000,,2013-01-03 15:43:00,
2013-01-03 07:53:00,37.0,16.0,-100.00,ENE,73,1.0,6.0,42,0.00,,,0.00,2.000000,,2013-01-03 15:53:00,
2013-01-03 08:03:00,37.0,16.0,-100.00,ENE,73,1.0,6.0,42,0.00,,,0.00,2.000000,,2013-01-03 16:03:00,
2013-01-03 08:12:00,37.0,16.0,-100.00,ENE,73,1.0,6.0,42,0.00,,,0.00,2.000000,,2013-01-03 16:12:00,
2013-01-03 08:43:00,41.0,20.0,-100.00,ENE,71,3.0,7.0,42,-99.99,,,0.00,16.000000,,2013-01-03 16:43:00,
2013-01-03 08:53:00,41.0,20.0,-100.00,ENE,71,3.0,7.0,42,-99.99,,,0.00,16.000000,,2013-01-03 16:53:00,
2013-01-03 09:12:00,41.0,20.0,-100.00,ENE,71,3.0,7.0,42,-99.99,,,0.00,16.000000,,2013-01-03 17:12:00,
2013-01-03 09:43:00,54.0,19.0,-100.00,East,98,0.0,6.0,25,-99.99,,,0.00,229.000000,,2013-01-03 17:43:00,
2013-01-03 09:53:00,54.0,19.0,-100.00,East,98,0.0,6.0,25,-99.99,,,0.00,229.000000,,2013-01-03 17:53:00,
2013-01-03 10:03:00,54.0,19.0,-100.00,East,98,0.0,6.0,25,-99.99,,,0.00,229.000000,,2013-01-03 18:03:00,
2013-01-03 10:12:00,54.0,19.0,-100.00,East,98,0.0,6.0,25,-99.99,,,0.00,229.000000,,2013-01-03 18:12:00,
2013-01-03 10:33:00,61.0,11.0,-100.00,WSW,258,2.0,6.0,14,0.00,,,0.00,319.000000,,2013-01-03 18:33:00,
2013-01-03 10:43:00,61.0,11.0,-100.00,WSW,258,2.0,6.0,14,0.00,,,0.00,319.000000,,2013-01-03 18:43:00,
2013-01-03 10:53:00,61.0,11.0,-100.00,WSW,258,2.0,6.0,14,0.00,,,0.00,319.000000,,2013-01-03 18:53:00,
2013-01-03 11:03:00,61.0,11.0,-100.00,WSW,258,2.0,6.0,14,0.00,,,0.00,319.000000,,2013-01-03 19:03:00,
2013-01-03 11:12:00,61.0,11.0,-100.00,WSW,258,2.0,6.0,14,0.00,,,0.00,319.000000,,2013-01-03 19:12:00,
2013-01-03 11:56:00,66.0,15.0,-100.00,North,354,0.0,8.0,14,0.00,,,0.00,164.000000,,2013-01-03 19:56:00,
2013-01-03 12:33:00,67.0,19.0,-100.00,NW,325,0.0,8.0,16,0.00,,,0.00,478.000000,,2013-01-03 20:33:00,
2013-01-03 12:43:00,67.0,19.0,-100.00,NW,325,0.0,8.0,16,0.00,,,0.00,478.000000,,2013-01-03 20:43:00,
2013-01-03 12:53:00,67.0,19.0,-100.00,NW,325,0.0,8.0,16,0.00,,,0.00,478.000000,,2013-01-03 20:53:00,
2013-01-03 13:50:00,69.0,12.0,-100.00,West,276,2.0,8.0,11,0.00,,,-99.99,539.000000,,2013-01-03 21:50:00,
2013-01-03 14:02:00,69.0,12.0,-100.00,West,276,2.0,8.0,11,0.00,,,-99.99,539.000000,,2013-01-03 22:02:00,
2013-01-03 14:12:00,69.0,12.0,-100.00,West,276,2.0,8.0,11,0.00,,,-99.99,539.000000,,2013-01-03 22:12:00,
2013-01-03 14:43:00,69.0,19.0,-100.00,WNW,292,1.0,7.0,15,0.00,,,0.00,457.000000,,2013-01-03 22:43:00,
2013-01-03 14:52:00,69.0,19.0,-100.00,WNW,292,1.0,7.0,15,0.00,,,0.00,457.000000,,2013-01-03 22:52:00,
2013-01-03 15:43:00,63.0,18.0,-100.00,WSW,252,1.0,6.0,17,0.00,,,0.00,319.000000,,2013-01-03 23:43:00,
2013-01-03 15:53:00,63.0,18.0,-100.00,WSW,252,1.0,6.0,17,0.00,,,0.00,319.000000,,2013-01-03 23:53:00,
2013-01-03 16:33:00,58.0,13.0,-100.00,SW,235,1.0,5.0,17,0.00,,,0.00,139.000000,,2013-01-04 00:33:00,
2013-01-03 16:42:00,58.0,13.0,-100.00,SW,235,1.0,5.0,17,0.00,,,0.00,139.000000,,2013-01-04 00:42:00,
2013-01-03 16:52:00,58.0,13.0,-100.00,SW,235,1.0,5.0,17,0.00,,,0.00,139.000000,,2013-01-04 00:52:00,
2013-01-03 17:02:00,58.0,13.0,-100.00,SW,235,1.0,5.0,17,0.00,,,0.00,139.000000,,2013-01-04 01:02:00,
2013-01-03 17:12:00,58.0,13.0,-100.00,SW,235,1.0,5.0,17,0.00,,,0.00,139.000000,,2013-01-04 01:12:00,
2013-01-03 17:42:00,49.0,25.0,-100.00,ESE,111,5.0,8.0,38,0.00,,,-99.99,7.000000,,2013-01-04 01:42:00,
2013-01-03 17:52:00,49.0,25.0,-100.00,ESE,111,5.0,8.0,38,0.00,,,-99.99,7.000000,,2013-01-04 01:52:00,
2013-01-03 18:33:00,49.0,17.0,-100.00,SE,132,5.0,12.0,28,0.00,,,0.00,0.000000,,2013-01-04 02:33:00,
2013-01-03 19:43:00,46.0,14.0,-100.00,ESE,105,0.0,11.0,27,0.00,,,-99.99,0.000000,,2013-01-04 03:43:00,
2013-01-03 19:53:00,46.0,14.0,-100.00,ESE,105,0.0,11.0,27,0.00,,,-99.99,0.000000,,2013-01-04 03:53:00,
2013-01-03 20:02:00,46.0,14.0,-100.00,ESE,105,0.0,11.0,27,0.00,,,-99.99,0.000000,,2013-01-04 04:02:00,
2013-01-03 20:12:00,46.0,14.0,-100.00,ESE,105,0.0,11.0,27,0.00,,,-99.99,0.000000,,2013-01-04 04:12:00,
2013-01-03 20:32:00,41.0,18.0,-100.00,East,100,1.0,5.0,39,0.00,,,0.00,0.000000,,2013-01-04 04:32:00,
2013-01-03 21:33:00,40.0,16.0,-100.00,SSE,163,0.0,4.0,37,-99.99,,,0.00,0.000000,,2013-01-04 05:33:00,
2013-01-03 22:33:00,40.0,17.0,-100.00,NNE,22,0.0,4.0,39,0.00,,,0.00,0.000000,,2013-01-04 06:33:00,
2013-01-03 23:32:00,40.0,17.0,-100.00,East,90,0.0,3.0,39,0.00,,,0.00,0.000000,,2013-01-04 07:32:00,